Regional Weather Roundup
Issued by NWS Wilmington, NC

Home | Current Version | Previous Version | Text Only | Print | Product List | Glossary On
Versions: 1 2 3 4 5 6 7 8 9 10 11 12 13 14 15 16 17 18 19 20 21 22 23 24 25 26 27 28 29 30 31 32 33 34 35 36 37 38 39 40 41 42 43 44 45 46 47 48 49 50
000
ASUS42 KILM 291310
RWRILM
RWRILM
REGIONAL HOURLY WEATHER ROUNDUP
NATIONAL WEATHER SERVICE WILMINGTON NC
900 AM EDT FRI AUG 29 2014

NOTE: "FAIR" INDICATES FEW OR NO CLOUDS BELOW 12,000 FEET WITH NO
SIGNIFICANT WEATHER AND/OR OBSTRUCTIONS TO VISIBILITY.

...............WFO WILMINGTON COUNTY WARNING AREA...............

......COASTAL NC AND SC COUNTIES......

CITY           SKY/WX    TMP DP  RH WIND       PRES   REMARKS
WILMINGTON     SUNNY     79  70  74 W6        30.10R
SOUTHPORT      SUNNY     79  71  76 W6        30.11R
N MYRTLE BEACH SUNNY     79  71  76 VRB5      30.10R
MYRTLE BEACH   SUNNY     79  70  73 W7        30.10R

......INLAND NC AND SC COUNTIES.......

CITY           SKY/WX    TMP DP  RH WIND       PRES   REMARKS
LUMBERTON      MOSUNNY   74  68  81 SW5       30.10R
ELIZABETHTOWN  PTSUNNY   73  68  84 CALM      30.11R
WHITEVILLE     SUNNY     76  69  80 W3        30.10S
FLORENCE       SUNNY     78  69  73 W5        30.10R
DARLINGTON     SUNNY     75  64  69 W5        30.12R

....................REST OF NORTH CAROLINA......................

.........EASTERN NC.........

CITY           SKY/WX    TMP DP  RH WIND       PRES   REMARKS
CAPE HATTERAS  NOT AVBL
JACKSONVILLE   PTSUNNY   75  66  73 W3        30.11R
MOREHEAD CITY  MOSUNNY   81  68  64 W7        30.10S
KENANSVILLE    MOSUNNY   73  68  83 CALM      30.12R
NEW BERN       CLOUDY    78  69  73 SW3       30.11R
ELIZABETH CITY PTSUNNY   76  69  79 NE9       30.12R

.........CENTRAL NC.........

CITY           SKY/WX    TMP DP  RH WIND       PRES   REMARKS
RALEIGH DURHAM CLOUDY    74  68  81 NE8       30.13R
ROCKY MOUNT    SUNNY     76  69  79 NE7       30.12R
ROANOKE RAPIDS NOT AVBL
FAYETTEVILLE   SUNNY     78  65  63 W5        30.10R
HOFFMAN        PTSUNNY   74  65  72 VRB2      30.12R

.........WESTERN NC.........

CITY           SKY/WX    TMP DP  RH WIND       PRES   REMARKS
CHARLOTTE      MOSUNNY   77  63  61 N3        30.12R
GREENSBORO     CLOUDY    71  63  75 NE13      30.16R
HICKORY        NOT AVBL
BOONE          NOT AVBL
ASHEVILLE      NOT AVBL

.....................REST OF SOUTH CAROLINA.....................

.........EASTERN SC.........

CITY           SKY/WX    TMP DP  RH WIND       PRES   REMARKS
CHARLESTON     MOSUNNY   80  73  79 CALM      30.09R
BEAUFORT MCAS  SUNNY     78  73  84 CALM      30.09R
HILTON HEAD    NOT AVBL

.........CENTRAL SC.........

CITY           SKY/WX    TMP DP  RH WIND       PRES   REMARKS
COLUMBIA       SUNNY     76  66  71 CALM      30.08S
ORANGEBURG     SUNNY     75  68  78 CALM      30.09S
SUMTER SHAW    SUNNY     78  71  79 SW6       30.09R

.........WESTERN SC.........

CITY           SKY/WX    TMP DP  RH WIND       PRES   REMARKS
GREENVILLE     NOT AVBL
ROCK HILL      MOSUNNY   73  65  75 CALM      30.12R
ANDERSON       MOSUNNY   72  62  71 E3        30.11R
CLEMSON        NOT AVBL
GREENWOOD      SUNNY     76  65  68 W6        30.11S


...................COASTAL AND OFFSHORE REPORTS..................

................LOCAL PIERS AND NC RESERVE................


STATION/POSITION TIME  SKY/WX   TEMP    WIND        PRES    VSBY
                                AIR SEA DIR/SP/G
                 (UTC)          (F)     (DEG/KT/KT) (MB)    (MI)
JOHNY MRCER PIER 1300            79 82  290/  5/  8 1018.8R
NC RESRV MASNBRO 1200            74     270/  2     1018.0S
OCEAN CREST PIER 1300            79 81  250/  7/  8 1018.4R
SPRINGMAID  PIER 1300            78 81  260/  5/  5 1019.2S


................COASTAL AND OFFSHORE BUOYS................


STATION/POSITION TIME  SKY/WX   TEMP    WIND        PRES    VSBY
                                AIR SEA DIR/SP/G
                 (UTC)          (F)     (DEG/KT/KT) (MB)    (MI)
DIMNDSHOAL 41025 1300            80     280/  6/  8 1019.0R
WVE H/P(F/S)=  4/10 WND WVE H/P(F/S)=  2/ 4 SWL H/P/D(F/S/D)=  3/110/10

CAPE LOOKOUT     1200            80     270/  9/ 11 1018.9R
ONSLOW BAY 41036 1300            81 81  290/  6/  8 1019.6R
WVE H/P(F/S)=  3/ 8 WND WVE H/P(F/S)=  2/ 4 SWL H/P/D(F/S/D)=  3/120/ 8

5 WRITEBCH 41038 1300            75 81  300/ 10/ 12   N/A
MASONBORO  41110 1300               81                N/A
WVE H/P(F/S)=  3/10 WND WVE H/P(F/S)=  2/10

WILM HARBR 41108 1300               81                N/A
WVE H/P(F/S)=  2/ 9 WND WVE H/P(F/S)=  2/ 9

27WRITEBCH 41037 1200            78 81  260/  6/  8 1018.8R
FRYING PAN 41013 NOT AVBL
SUNST NRSH 41024 1200            77     270/  8/ 10 1018.7R
CAPRS NRSH 41029 1200            83      50/  4/  4   N/A
EDISTO     41004 1300            82 83  200/  4/  4 1018.2R
WVE H/P(F/S)=  3/ 9 WND WVE H/P(F/S)=  2/ 3 SWL H/P/D(F/S/D)=  3/ 9



..........OFFSHORE BUOYS BEYOND 100 NM OFFSHORE...........
.....IN A TRIANGLE---HAT TO BERMUDA TO BAHAMAS TO HAT.....


STATION/POSITION TIME  SKY/WX   TEMP    WIND        PRES    VSBY
                                AIR SEA DIR/SP/G
                 (UTC)          (F)     (DEG/KT/KT) (MB)    (MI)
150E HAT   41001 NOT AVBL
W BERMUDA  41048 1151            79 79  280/  6/  6 1019.6
WVE H/P(F/S)=  7/ 8 WND WVE H/P(F/S)=  2/ 4 SWL H/P/D(F/S/D)=  7/ 40/ 8

ATLANTIC S 41049 1249            84 85  220/  6/  6 1020.5R
WVE H/P(F/S)=  6/ 8 WND WVE H/P(F/S)=  2/ 4 SWL H/P/D(F/S/D)=  5/190/ 8

E BAHAMAS  41046 1242            84 84  110/ 12/ 14 1019.2R
WVE H/P(F/S)=  5/10 WND WVE H/P(F/S)=  2/ 5 SWL H/P/D(F/S/D)=  5/100/10

NE BAHAMAS 41047 1221            83 84  180/  8/ 10 1019.8R
WVE H/P(F/S)=  5/ 8 WND WVE H/P(F/S)=  2/ 4 SWL H/P/D(F/S/D)=  5/110/ 8

120E CANVRL41010 1300            82 83  180/  4/  6 1018.2R
WVE H/P(F/S)=  3/ 8 WND WVE H/P(F/S)=  2/ 3 SWL H/P/D(F/S/D)=  3/ 80/ 8


END


USA.gov is the U.S. government's official web portal to all federal, state and local government web resources and services.